www.pogodaiklimat.ru

Погода и климат >> Архив погоды >> Антарктида >> Halley


ПОГОДА в Halley

  • Прогноз погоды в Halley
  • Монитор погоды в Halley
  • Климат города

АРХИВ ПОГОДЫ в Halley

Время (UTC), дата Ветер
(напр.,м/с)
 
Видим.   Явления Облачность Т
(С)
Тd
(С)
f
(%)
Тe
(С)
Тes
(С)
Комфортность P
(гПа)
Po
(гПа)
Тmin
(С)
Tmax
(С)
R
(мм)
R24
(мм)
S
(см)
07 19.05 З 2 н/о н/о -23.4 -25.2 85 -30 -30 983.8 979.8
08 19.05 З 2 н/о н/о -24.0 -26.0 83 -31 -31 опасность
обморожения
983.3 979.3
12 19.05 З 2 н/о н/о -23.4 -25.4 84 -29 -29 981.7 977.7
14 19.05 З 2 н/о н/о -23.9 -26.0 83 -31 -31 опасность
обморожения
981.5 977.5
13 19.05 З 2 н/о н/о -23.6 -25.7 83 -29 -29 981.7 977.7
15 19.05 З 2 н/о н/о -25.1 -27.2 83 -31 -31 опасность
обморожения
981.1 977.1
19 19.05 н/о н/о -22.9 -24.9 84 981.5 977.5
20 19.05 В 1 н/о н/о -24.5 -27.0 80 -28 -28 981.5 977.5
22 19.05 З 1 н/о н/о -23.2 -25.1 84 -27 -27 981.8 977.8
00 20.05 н/о н/о -23.9 -26.1 82 982.3 978.3
01 20.05 н/о н/о -23.1 -25.2 83 982.3 978.3
02 20.05 н/о н/о -23.1 -25.2 83 982.5 978.5
03 20.05 В 1 н/о н/о -20.3 -22.3 84 -23 -23 982.4 978.4
05 20.05 В 2 н/о н/о -23.8 -26.0 82 -30 -30 982.9 978.9
06 20.05 В 3 н/о н/о -24.2 -26.5 81 -33 -33 опасность
обморожения
983.6 979.6
08 20.05 В 3 н/о н/о -27.1 -29.7 78 -35 -35 опасность
обморожения
984.1 980.0
07 20.05 СВ 4 н/о н/о -24.8 -27.2 80 -34 -34 опасность
обморожения
984.0 980.0
10 20.05 В 4 н/о н/о -28.7 -31.4 77 -40 -40 опасность
обморожения
983.8 979.7
12 20.05 В 5 н/о н/о -30.2 -33.0 76 -42 -42 опасность
обморожения
984.1 980.0
13 20.05 В 5 н/о н/о -30.8 -33.7 76 -44 -44 опасность
обморожения
984.1 980.0
15 20.05 В 6 н/о н/о -28.2 -30.8 78 -41 -41 опасность
обморожения
983.6 979.5
17 20.05 В 6 н/о н/о -27.4 -30.0 78 -40 -40 опасность
обморожения
983.1 979.0
18 20.05 В 6 н/о н/о -26.6 -29.1 79 -39 -39 опасность
обморожения
982.4 978.3
20 20.05 В 7 н/о н/о -25.8 -28.6 77 -39 -39 опасность
обморожения
981.7 977.6
22 20.05 В 11 н/о н/о -26.7 -29.4 78 -43 -43 опасность
обморожения
981.0 976.9
23 20.05 В 13 н/о н/о -25.6 -28.0 80 -43 -43 опасность
обморожения
980.5 976.5
01 21.05 В 13 н/о н/о -24.2 -26.4 82 -41 -41 опасность
обморожения
980.0 976.0
03 21.05 В 12 н/о н/о -20.3 -22.2 85 -35 -35 опасность
обморожения
979.2 975.2
06 21.05 В 11 н/о н/о -18.7 -20.4 86 -33 -33 опасность
обморожения
977.9 974.0
08 21.05 В 11 н/о н/о -19.2 -21.1 85 -33 -33 опасность
обморожения
977.5 973.6
11 21.05 В 11 н/о н/о -18.1 -19.8 86 -32 -32 опасность
обморожения
976.3 972.4
13 21.05 В 13 н/о н/о -16.5 -18.0 88 -30 -30 975.6 971.7
15 21.05 В 15 н/о н/о -15.2 -16.5 90 -29 -29 974.4 970.5
16 21.05 В 16 н/о н/о -14.9 -16.3 89 -29 -29 974.3 970.4
18 21.05 В 16 н/о н/о -14.9 -16.2 90 -29 -29 974.5 970.6
20 21.05 В 14 н/о н/о -15.1 -16.5 89 -29 -29 975.1 971.2
21 21.05 В 13 н/о н/о -15.4 -16.8 89 -29 -29 976.3 972.4
23 21.05 В 13 н/о н/о -15.4 -16.7 90 -29 -29 977.2 973.3
01 22.05 В 11 н/о н/о -15.4 -16.7 90 -28 -28 978.2 974.3
03 22.05 В 9 н/о н/о -15.2 -16.5 90 -27 -27 978.8 974.9
04 22.05 В 8 н/о н/о -15.0 -16.4 89 -26 -26 979.1 975.2
06 22.05 В 6 н/о н/о -15.2 -16.6 89 -25 -25 980.5 976.6
07 22.05 В 4 н/о н/о -15.4 -16.9 88 -23 -23 981.6 977.7
09 22.05 В 4 н/о н/о -15.9 -17.3 89 -23 -23 982.4 978.5
11 22.05 ЮВ 2 н/о н/о -18.8 -20.5 86 -25 -25 983.4 979.5
12 22.05 н/о н/о -19.0 -20.7 86 984.2 980.2
13 22.05 В 2 н/о н/о -18.9 -20.4 88 -25 -25 984.5 980.5
14 22.05 В 2 н/о н/о -18.5 -20.1 87 -24 -24 984.8 980.9
16 22.05 В 3 н/о н/о -17.6 -19.1 88 -24 -24 986.1 982.2
17 22.05 В 4 н/о н/о -17.5 -19.0 88 -25 -25 986.8 982.9
18 22.05 В 5 н/о н/о -17.4 -18.9 88 -26 -26 987.2 983.3
19 22.05 В 6 н/о н/о -17.7 -19.2 88 -28 -28 987.6 983.7
21 22.05 В 8 н/о н/о -18.6 -20.3 86 -31 -31 опасность
обморожения
988.7 984.7
23 22.05 В 9 н/о н/о -18.8 -20.5 86 -32 -32 опасность
обморожения
989.5 985.5
00 23.05 В 9 н/о н/о -20.0 -21.8 86 -33 -33 опасность
обморожения
990.1 986.1
04 23.05 В 12 н/о н/о -19.3 -21.0 86 -34 -34 опасность
обморожения
990.6 986.6
05 23.05 В 13 н/о н/о -18.4 -20.1 86 -33 -33 опасность
обморожения
990.9 986.9
09 23.05 В 14 н/о н/о -18.2 -19.9 86 -33 -33 опасность
обморожения
991.5 987.5
10 23.05 В 14 н/о н/о -17.9 -19.6 86 -33 -33 опасность
обморожения
991.7 987.7
11 23.05 В 14 н/о н/о -17.4 -19.0 87 -32 -32 опасность
обморожения
991.5 987.5
14 23.05 В 14 н/о н/о -16.6 -18.1 88 -31 -31 опасность
обморожения
991.4 987.5
15 23.05 В 13 н/о н/о -16.6 -18.1 88 -31 -31 опасность
обморожения
991.4 987.5
16 23.05 В 12 н/о н/о -16.6 -18.0 89 -30 -30 991.3 987.4
17 23.05 В 13 н/о н/о -16.4 -17.9 88 -30 -30 990.6 986.7
20 23.05 В 15 н/о н/о -14.7 -16.0 90 -29 -29 987.2 983.3
21 23.05 В 17 н/о н/о -14.0 -15.2 91 -28 -28 986.3 982.4
22 23.05 В 17 н/о н/о -13.4 -14.5 91 -27 -27 985.7 981.8
23 23.05 В 16 н/о н/о -13.0 -14.1 91 -27 -27 985.1 981.2
01 24.05 В 17 н/о н/о -12.4 -13.6 91 -26 -26 984.3 980.4
02 24.05 В 17 н/о н/о -12.4 -13.5 91 -26 -26 984.0 980.1
03 24.05 В 17 н/о н/о -12.3 -13.4 91 -26 -26 983.5 979.7
04 24.05 В 17 н/о н/о -12.2 -13.3 91 -26 -26 982.9 979.1
06 24.05 В 17 н/о н/о -12.9 -14.0 91 -27 -27 981.3 977.5
07 24.05 В 17 н/о н/о -13.1 -14.3 91 -27 -27 981.4 977.5
08 24.05 В 15 н/о н/о -13.2 -14.4 91 -27 -27 981.8 977.9
11 24.05 В 14 н/о н/о -13.1 -14.2 91 -26 -26 982.0 978.1
12 24.05 В 14 н/о н/о -12.8 -13.9 91 -26 -26 982.7 978.8
13 24.05 В 14 н/о н/о -12.6 -13.7 91 -25 -25 983.2 979.3
14 24.05 В 14 н/о н/о -12.7 -13.8 91 -26 -26 983.5 979.6
15 24.05 В 13 н/о н/о -12.6 -13.7 91 -25 -25 983.6 979.7
16 24.05 В 14 н/о н/о -12.4 -13.5 91 -25 -25 983.7 979.8
18 24.05 В 14 н/о н/о -12.2 -13.3 91 -25 -25 983.7 979.9
20 24.05 В 15 н/о н/о -12.1 -25 -25 983.6 979.8
19 24.05 В 15 н/о н/о -12.1 -13.2 91 -25 -25 983.6 979.8
21 24.05 В 15 н/о н/о -11.9 -13.0 92 -25 -25 983.7 979.9
23 24.05 В 14 н/о н/о -11.9 -12.9 92 -24 -24 984.0 980.2
00 25.05 В 14 н/о н/о -11.1 -12.1 92 -24 -24 984.1 980.3
01 25.05 В 14 н/о н/о -11.1 -12.1 92 -24 -24 984.0 980.2
02 25.05 В 14 н/о н/о -11.4 -12.5 92 -24 -24 984.2 980.4
04 25.05 В 13 н/о н/о -11.6 -12.8 91 -24 -24 984.0 980.2
05 25.05 В 11 н/о н/о -12.2 -13.3 91 -24 -24 984.0 980.2
07 25.05 В 12 н/о н/о -11.6 -12.6 92 -23 -23 983.1 979.3
09 25.05 В 9 н/о н/о -12.9 -14.0 91 -24 -24 982.2 978.3
12 25.05 В 12 н/о н/о -10.1 -10.9 94 -22 -22 980.1 976.3
17 25.05 В 15 н/о н/о -9.0 -9.7 95 -22 -22 977.1 973.3
16 25.05 В 14 н/о н/о -9.0 -9.8 94 -21 -21 977.9 974.1
19 25.05 В 15 н/о н/о -8.8 -9.6 94 -21 -21 976.4 972.6
21 25.05 В 11 н/о н/о -9.1 -9.9 94 -20 -20 977.4 973.6
00 26.05 В 14 н/о н/о -9.1 -9.9 94 -21 -21 978.1 974.3
02 26.05 В 15 н/о н/о -9.3 -10.1 94 -22 -22 978.7 974.9
03 26.05 В 16 н/о н/о -9.4 -10.3 93 -22 -22 978.9 975.1

 

Местоположение метеостанции Halley (Антарктида): широта -75.50 долгота -26.65 высота над уровнем моря 30 м.

В архиве по умолчанию представлена погода в Halley за последнюю неделю. Архивные данные за месяц целиком и за предыдущие месяцы, начиная с января 2011 года, Вы можете получить, выбрав интересующий диапазон дат из раскрывающегося списка и нажав кнопку "Ввод!".

Внимание! Время в таблицах - всемирное. Для получения местного времени необходимо прибавить поправку, которая в Halley равна 0 ч.

Смотрите также архив погоды в соседних городах и на ближайших метеорологических станциях:

Погода в Base Belgrano Ii (Антарктида) (332 км)
Погода в Nordenskiold Base (Антарктида) (482 км)
Погода в Kohnen Ep9 (Антарктида) (750 км)
Погода в Neumayer (Антарктида) (797 км)
Погода в S.a.n.a.e. aws (Антарктида) (851 км)
Погода в Troll (Антарктида) (970 км)
Погода в Butler Island (Антарктида) (1082 км)
Погода в Sky Blue (Антарктида) (1250 км)
Погода в Maitri (Антарктида) (1317 км)
Погода в Novolazarevskaja (Антарктида) (1318 км)

Пояснения к столбцам:

Ветер - указаны скорость ветра в м/с - средняя за 10 мин, порывы в срок и между сроками (в фигурных скобках) и направление, откуда дует ветер: С - северный, СВ - северо-восточный, В - восточный, ЮВ - юго-восточный, Ю - южный, ЮЗ - юго-западный, З - западный, СЗ - северо-западный.
Видимость - горизонтальная дальность видимости в метрах или километрах. При видимости от 1 до 10 км при отсутствии осадков обычно наблюдается дымка, при ухудшении видимости до 1 км и менее - туман. В сухую погоду видимость может ухудшаться дымом, пылью или мглою.
Явления - указаны атмосферные явления, наблюдавшиеся в срок или в последний час перед сроком; фигурными скобками обозначены явления, наблюдавшиеся между сроками (за 1-3 часа до срока); квадратными скобками обозначены град или гололедные отложения с указанием их диаметра в мм.
Облачность - указаны через наклонную черту общая и нижняя облачность в баллах и высота нижней границы облаков в метрах; квадратными скобками обозначены формы облаков: Ci - перистые, Cs - перисто-слоистые, Cc - перисто-кучевые, Ac - высококучевые, As - высокослоистые, Sc - слоисто-кучевые, Ns - слоисто-дождевые, Cu - кучевые, Cb - кучево-дождевые. Подробнее классификацию облаков см. в Атласе облаков (PDF).
T - Температура воздуха - температура, измеренная на высоте 2 м над землей.
Td - Температура точки росы - температура, при понижении до которой содержащийся в воздухе водяной пар достигнет насыщения.
f - Относительная влажность воздуха - влажноcть воздуха, измеренная на высоте 2 м над землей.
Te - Эффективная температура - температура, которую ощущает одетый по сезону человек в тени. Характеристика душности погоды. При расчете учитывается влияние влажности воздуха и скорости ветра на теплоощущения человека.
Tes - Эффективная температура на солнце - температура, которую ощущает человек, с поправкой на солнечный нагрев. Характеристика знойности погоды. Зависит от высоты солнца над горизонтом, облачности и скорости ветра. Ночью, в пасмурную погоду, а также при ветре 12 м/с и более поправка равна нулю.
P - Атмосферное давление - приведенное к уровню моря атмосферное давление.
Po - Атмосферное давление - измеренное на уровне метеостанции атмосферное давление.
Tmin - Минимальная температура - минимум температуры воздуха на высоте 2 м над землей.
Tmax - Максимальная температура - максимум температуры воздуха на высоте 2 м над землей.
R - Количество осадков - Количество выпавших осадков за период времени, мм. При наведении курсора мыши на число - период времени, за который выпало указанное количество осадков.
R24 - Количество осадков - Количество выпавших осадков за 24 часа, мм.
S - Снежный покров - Высота снежного покрова, см. При наведении курсора мыши на число - состояние снежного покрова и степень покрытия местности в баллах.